Date String (YYYY-MM-DD hh:mm:ss) UTC,Instrument flags,Ambient pressure (hPa),Sample flow (lpm),Bypass flow (lpm),Sample temperature (°C),Ambient temperature (°C),ASC tube jacket temperature (°C),LED temperature (°C),Box temperature (°C),Sample RH (%),Span deviation,Mass concentration (μg/m³),Mass concentration (μg/m³),Mass concentration (μg/m³)
DateTimeUTC,F1_M11,P_M11,Q1_M11,Q2_M11,T1_M11,T2_M11,T3_M11,T4_M11,T5_M11,U1_M11,ZSPAN_M11,X0_M11,X2_M11,X1_M11
2022-10-18 15:00:00,,0834.1,5.01,0.00,25.5,24.3,00.0,34.2,27.4,15.6,0002.0,0012.03,0005.73,0004.95
2022-10-18 15:01:00,,0834.1,4.98,0.00,25.5,24.3,00.0,34.2,27.4,15.8,0001.7,0010.99,0005.76,0004.99
2022-10-18 15:02:00,,0834.1,5.02,0.00,25.5,24.3,00.0,34.2,27.4,16.0,0001.3,0011.34,0005.87,0005.05
2022-10-18 15:03:00,,0834.1,5.00,0.00,25.5,24.4,00.0,34.2,27.4,16.7,0000.9,0012.31,0005.93,0005.08
2022-10-18 15:04:00,,0834.1,5.00,0.00,25.5,24.4,00.0,34.2,27.4,16.9,0000.6,0012.45,0005.90,0005.08
2022-10-18 15:05:00,,0834.1,4.99,0.00,25.5,24.4,00.0,34.3,27.5,16.7,0000.4,0012.37,0005.89,0005.11
2022-10-18 15:06:00,,0834.1,5.00,0.00,25.5,24.4,00.0,34.3,27.5,16.8,-000.2,0012.41,0005.94,0005.15
2022-10-18 15:07:00,,0834.1,4.99,0.00,25.5,24.4,00.0,34.3,27.5,16.8,0000.5,0012.01,0005.95,0005.17
2022-10-18 15:08:00,,0834.1,5.01,0.00,25.6,24.4,00.0,34.3,27.5,16.3,0001.1,0012.84,0006.00,0005.20
2022-10-18 15:09:00,,0834.1,5.00,0.00,25.6,24.5,00.0,34.3,27.5,16.1,0000.9,0013.81,0006.02,0005.21
2022-10-18 15:10:00,,0834.1,5.00,0.00,25.6,24.5,00.0,34.3,27.5,16.2,0000.0,0014.32,0006.09,0005.22
2022-10-18 15:11:00,,0834.1,5.00,0.00,25.6,24.5,00.0,34.3,27.5,16.0,0000.0,0015.30,0006.14,0005.24
2022-10-18 15:12:00,,0834.1,4.99,0.00,25.6,24.5,00.0,34.4,27.5,15.7,0000.0,0015.90,0006.16,0005.23
2022-10-18 15:13:00,,0834.1,5.01,0.00,25.6,24.5,00.0,34.4,27.5,15.6,0000.0,0016.31,0006.17,0005.23
2022-10-18 15:14:00,,0834.1,5.00,0.00,25.6,24.5,00.0,34.4,27.5,15.4,0000.0,0016.23,0006.15,0005.23
2022-10-18 15:15:00,,0834.2,4.99,0.00,25.7,24.5,00.0,34.4,27.5,15.3,0000.0,0016.89,0006.16,0005.26
2022-10-18 15:16:00,,0834.2,5.01,0.00,25.7,24.5,00.0,34.4,27.6,15.9,0003.3,0017.70,0006.17,0005.27
2022-10-18 15:17:00,,0834.3,5.00,0.00,25.7,24.6,00.0,34.4,27.6,15.6,0003.0,0018.47,0006.21,0005.28
2022-10-18 15:18:00,,0834.2,5.02,0.00,25.7,24.6,00.0,34.4,27.6,15.7,0001.5,0018.62,0006.26,0005.31
2022-10-18 15:19:00,,0834.3,4.99,0.00,25.7,24.6,00.0,34.4,27.6,15.4,0000.0,0018.96,0006.30,0005.31
2022-10-18 15:20:00,,0834.3,5.01,0.00,25.7,24.6,00.0,34.5,27.7,15.7,0000.6,0018.88,0006.35,0005.31
2022-10-18 15:21:00,,0834.3,4.99,0.00,25.7,24.6,00.0,34.5,27.7,15.7,0002.1,0018.24,0006.30,0005.30
2022-10-18 15:22:00,,0834.3,5.00,0.00,25.8,24.6,00.0,34.5,27.7,15.7,0000.6,0017.24,0006.29,0005.27
2022-10-18 15:23:00,,0834.3,5.00,0.00,25.8,24.7,00.0,34.5,27.7,15.4,0000.6,0016.72,0006.27,0005.27
2022-10-18 15:24:00,,0834.2,5.00,0.00,25.8,24.7,00.0,34.5,27.7,15.4,0002.0,0016.10,0006.22,0005.26
2022-10-18 15:25:00,,0834.3,5.00,0.00,25.8,24.7,00.0,34.6,27.8,15.3,0001.3,0016.11,0006.20,0005.24
2022-10-18 15:26:00,,0834.3,4.99,0.00,25.8,24.7,00.0,34.6,27.8,15.5,0001.1,0016.26,0006.19,0005.22
2022-10-18 15:27:00,,0834.3,5.01,0.00,25.8,24.8,00.0,34.6,27.8,15.4,0000.2,0016.05,0006.19,0005.20
2022-10-18 15:28:00,,0834.3,4.98,0.00,25.9,24.8,00.0,34.6,27.8,15.8,0000.0,0015.78,0006.14,0005.17
2022-10-18 15:29:00,,0834.3,5.02,0.00,25.9,24.8,00.0,34.6,27.8,15.5,0000.0,0015.70,0006.07,0005.15
2022-10-18 15:30:00,,0834.3,4.99,0.00,25.9,24.8,00.0,34.6,27.8,15.3,0000.8,0015.39,0006.00,0005.12
2022-10-18 15:31:00,,0834.3,5.00,0.00,25.9,24.8,00.0,34.6,27.8,15.4,0002.3,0014.46,0005.94,0005.09
2022-10-18 15:32:00,,0834.3,5.02,0.00,25.9,24.8,00.0,34.7,27.8,15.9,0000.1,0014.73,0005.92,0005.07
2022-10-18 15:33:00,,0834.3,4.99,0.00,26.0,24.9,00.0,34.7,27.8,15.6,0000.0,0014.88,0005.88,0005.05
2022-10-18 15:34:00,,0834.3,5.00,0.00,26.0,24.9,00.0,34.7,27.9,15.2,0000.0,0015.22,0005.85,0005.02
2022-10-18 15:35:00,,0834.3,5.01,0.00,26.0,24.9,00.0,34.7,27.9,15.1,0000.0,0015.25,0005.84,0005.00
2022-10-18 15:36:00,,0834.3,4.99,0.00,26.0,24.9,00.0,34.7,27.9,15.0,0000.0,0014.65,0005.81,0004.98
2022-10-18 15:37:00,,0834.3,5.02,0.00,26.0,24.9,00.0,34.7,27.9,14.8,0000.0,0014.22,0005.78,0004.96
2022-10-18 15:38:00,,0834.3,4.98,0.00,26.0,24.9,00.0,34.7,27.9,14.2,0000.0,0013.35,0005.79,0004.97
2022-10-18 15:39:00,,0834.3,5.01,0.00,26.1,25.0,00.0,34.8,27.9,14.6,0000.0,0013.00,0005.78,0004.96
2022-10-18 15:40:00,,0834.3,4.98,0.00,26.1,25.0,00.0,34.8,28.0,14.4,0000.0,0013.40,0005.80,0004.95
2022-10-18 15:41:00,,0834.3,5.01,0.00,26.1,25.0,00.0,34.8,28.0,14.6,0000.0,0014.37,0005.78,0004.93
2022-10-18 15:42:00,,0834.3,4.99,0.00,26.1,25.0,00.0,34.8,28.0,14.7,0000.0,0014.86,0005.76,0004.93
2022-10-18 15:43:00,,0834.3,5.02,0.00,26.1,25.0,00.0,34.8,28.0,14.3,0000.0,0014.44,0005.71,0004.91
2022-10-18 15:44:00,,0834.3,4.99,0.00,26.2,25.1,00.0,34.8,28.0,14.2,0000.0,0014.08,0005.69,0004.91
2022-10-18 15:45:00,,0834.2,5.01,0.00,26.2,25.1,00.0,34.9,28.1,15.0,0000.0,0013.76,0005.66,0004.90
2022-10-18 15:46:00,,0834.2,4.99,0.00,26.2,25.1,00.0,34.9,28.1,14.8,0000.0,0013.65,0005.60,0004.87
2022-10-18 15:47:00,,0834.2,5.02,0.00,26.2,25.1,00.0,34.9,28.1,15.0,0000.0,0013.87,0005.58,0004.84
2022-10-18 15:48:00,,0834.1,5.00,0.00,26.2,25.1,00.0,34.9,28.1,14.5,0000.0,0013.61,0005.59,0004.81
2022-10-18 15:49:00,,0834.1,4.99,0.00,26.2,25.2,00.0,34.9,28.1,15.3,0000.0,0013.38,0005.54,0004.76
2022-10-18 15:50:00,,0834.1,4.99,0.00,26.3,25.2,00.0,35.0,28.1,15.2,0000.0,0013.33,0005.53,0004.75
2022-10-18 15:51:00,,0834.1,4.99,0.00,26.3,25.2,00.0,35.0,28.1,15.0,0000.0,0012.83,0005.49,0004.72
2022-10-18 15:52:00,,0834.0,5.00,0.00,26.3,25.2,00.0,35.0,28.2,15.0,0000.0,0012.02,0005.46,0004.69
2022-10-18 15:53:00,,0834.1,4.99,0.00,26.3,25.3,00.0,35.0,28.2,14.1,0000.0,0010.66,0005.45,0004.66
2022-10-18 15:54:00,,0834.1,5.00,0.00,26.3,25.3,00.0,35.0,28.2,13.9,0000.0,0009.97,0005.37,0004.60
2022-10-18 15:55:00,,0834.1,5.02,0.00,26.4,25.3,00.0,35.1,28.3,14.3,0000.0,0010.23,0005.33,0004.55
2022-10-18 15:56:00,,0834.1,4.99,0.00,26.4,25.3,00.0,35.1,28.3,14.8,0000.0,0010.58,0005.26,0004.50
2022-10-18 15:57:00,,0834.1,5.01,0.00,26.4,25.4,00.0,35.1,28.3,14.4,0000.0,0010.93,0005.25,0004.46
2022-10-18 15:58:00,,0834.1,5.00,0.00,26.4,25.4,00.0,35.1,28.4,14.5,0000.0,0011.81,0005.27,0004.44
2022-10-18 15:59:00,,0834.1,5.00,0.00,26.4,25.4,00.0,35.1,28.4,14.2,0000.0,0012.21,0005.20,0004.41
